Location: Northcutt
(34.7304°N, 84.4305°W)
Time: 20:12:01
(UTC+00:00)

Transit 2A Rocket - Pass Details

Date: 04 October 2022
Orbit: 589 x 911 km, 66.7° (Epoch: 03 December)

Event Time Altitude Azimuth Distance (km) Brightness Sun altitude
Rises 11:20:39 0° 232° (SW) 2,849 7.5 -3.7°
Reaches altitude 10° 11:23:10 10° 244° (WSW) 1,927 6.6 -3.2°
Maximum altitude 11:26:51 27° 303° (WNW) 1,137 5.5 -2.5°
Drops below altitude 10° 11:30:31 10° 3° (N) 1,924 7.1 -1.7°
Sets 11:33:03 0° 15° (NNE) 2,844 8.1 -1.2°
